Flag for Germany Weather past 2 weeks in Homburg (Saar), Saarland, Germany

Now
77 °F

Clear.


Feels Like: 79 °F
Forecast: 65 / 94 °F
Wind: No wind

Location: Saarbruecken / Ensheim

Current Time: Jul 3, 2015 at 1:57:26 AM

Latest Report: Jul 3, 2015 at 1:20 AM


Visibility: 10 mi

Pressure: 30.18 "Hg

Humidity: 57%

Dew point: 61 °F

Location of Homburg (Saar)Location

Historic Weather in Homburg (Saar) — Graph

°F

Homburg (Saar) temperature yesterday

Maximum temperature yesterday: 95 °F (at 3:20 PM)
Minimum temperature yesterday: 66 °F (at 5:20 AM)
Average temperature yesterday: 83 °F

Past Weeks' High & Low Weather Summary

 TemperatureHumidityPressure
High95 °F (Jul 2, 3:20 PM)100% (Jun 18, 9:50 AM)30.24 "Hg (Jun 18, 9:50 AM)
Low45 °F (Jun 19, 5:20 AM)24% (Jul 1, 4:20 PM)29.74 "Hg (Jun 22, 9:50 PM)
Average64 °F65%30.10 "Hg
* Reported Jun 18 12:20 AM — Jul 3 12:20 AM, Homburg (Saar), Weather by CustomWeather, © 2015

Note: Actual official high and low records may vary slightly from our data, if they occured in-between our weather recording intervals... More about our weather records

Advertising

Homburg (Saar) weather history for previous 24 hours

 ConditionsComfort  
Time TempWeatherWind HumidityBarometerVisibility
12:20 AM
Fri, Jul 3
81 °FPassing clouds.3 mph51%30.15 "HgN/A
11:50 PM
Thu, Jul 2
82 °FClear.5 mph48%30.15 "Hg10 mi
11:20 PM82 °FClear.3 mph51%30.15 "Hg10 mi
10:50 PM81 °FPassing clouds.5 mph54%30.15 "HgN/A
10:20 PM82 °FPartly sunny.3 mph51%30.15 "HgN/A
9:50 PM84 °FPartly sunny.2 mph45%30.15 "HgN/A
9:20 PM86 °FScattered clouds.3 mph43%30.12 "HgN/A
8:50 PM88 °FPassing clouds.2 mph38%30.12 "HgN/A
8:20 PM90 °FPassing clouds.5 mph36%30.12 "HgN/A
7:50 PM91 °FSunny.6 mph32%30.09 "Hg10 mi
7:20 PM93 °FSunny.8 mph30%30.09 "Hg10 mi
6:50 PM93 °FPassing clouds.8 mph28%30.09 "HgN/A
6:20 PM93 °FPassing clouds.8 mph28%30.09 "HgN/A
5:50 PM95 °FPassing clouds.10 mph26%30.09 "HgN/A
5:20 PM95 °FPassing clouds.9 mph26%30.09 "HgN/A
4:50 PM95 °FPassing clouds.8 mph25%30.09 "HgN/A
4:20 PM95 °FPassing clouds.9 mph28%30.09 "HgN/A
3:50 PM95 °FPassing clouds.10 mph26%30.09 "HgN/A
3:20 PM95 °FPassing clouds.8 mph28%30.09 "HgN/A
2:50 PM93 °FPassing clouds.9 mph32%30.09 "HgN/A
2:20 PM93 °FPassing clouds.9 mph32%30.12 "HgN/A
1:50 PM93 °FPassing clouds.9 mph32%30.12 "HgN/A
1:20 PM91 °FPassing clouds.9 mph34%30.12 "HgN/A
12:50 PM91 °FPassing clouds.7 mph32%30.12 "HgN/A
12:20 PM90 °FPassing clouds.7 mph33%30.12 "HgN/A
11:50 AM88 °FPassing clouds.5 mph35%30.12 "HgN/A
11:20 AM88 °FPassing clouds.6 mph35%30.12 "HgN/A
10:50 AM86 °FPassing clouds.8 mph35%30.12 "HgN/A
10:20 AM84 °FPassing clouds.10 mph40%30.12 "HgN/A
9:50 AM82 °FPassing clouds.7 mph42%30.12 "HgN/A
9:20 AM82 °FPassing clouds.7 mph45%30.12 "HgN/A
8:50 AM81 °FPassing clouds.5 mph48%30.12 "HgN/A
8:20 AM79 °FSunny.2 mph51%30.12 "Hg10 mi
7:50 AM75 °FSunny.2 mph61%30.12 "Hg10 mi
7:20 AM73 °FSunny.3 mph65%30.12 "Hg10 mi
6:50 AM70 °FSunny.5 mph73%30.12 "Hg10 mi
6:20 AM68 °FClear.5 mph73%30.12 "Hg10 mi
5:50 AM68 °FClear.6 mph73%30.09 "Hg10 mi
5:20 AM66 °FClear.5 mph78%30.09 "Hg10 mi
4:50 AM68 °FClear.5 mph69%30.09 "Hg10 mi
4:20 AM68 °FClear.5 mph69%30.09 "Hg10 mi
3:50 AM70 °FClear.6 mph64%30.09 "Hg10 mi
3:20 AM70 °FClear.5 mph64%30.09 "Hg10 mi
2:50 AM72 °FClear.5 mph61%30.09 "Hg10 mi
2:20 AM72 °FClear.6 mph61%30.09 "Hg10 mi
1:50 AM72 °FClear.6 mph61%30.09 "Hg10 mi
1:20 AM72 °FClear.6 mph61%30.09 "Hg10 mi
Weather by CustomWeather, © 2015

See weather overviewHow to use our weather pages